[[{"header":{"parameterUnit":"m.s-1","parameterCategory":1,"la1":30.2991,"la2":30.254,"lo1":-89.0895,"lo2":-89.0444,"dy":0.0017,"dx":0.0017,"nx":28,"ny":28,"refTime":"2024-04-07T03:00:00:Z","depth":0,"parameterNumber":2,"parameterNumberName":"U-component_of_WINDS"},"data":[0,0,0,0,0,0,0,0,0,0,0,0,0,0,0,0,0,0,0,0,0,0,0,0,0,0,0,0,0,0,0,0,0,0,0,0,0,0,0,0,0,0,0,0,0,0,0,0,0,0,0,0,0,0,0,0,0,0,-2.399,-2.399,0,-2.3992,-2.3992,-2.3992,-2.3982,-2.3982,-2.3981,-2.3981,-2.3985,-2.3986,-2.3986,0,0,0,0,0,0,0,0,0,0,0,0,0,-2.3979,-2.3979,-2.399,-2.399,-2.399,-2.3992,-2.3992,-2.3992,-2.3982,-2.3981,-2.3981,-2.3981,-2.3985,-2.3985,-2.3986,0,0,0,0,0,0,0,0,0,0,0,0,0,-2.3982,-2.3979,-2.399,-2.3985,-2.3985,-2.3992,-2.3992,-2.3992,-2.3982,-2.3981,-2.3981,-2.3981,-2.3985,-2.3985,-2.3986,-2.3999,0,0,-2.3988,-2.3988,0,0,0,0,0,0,0,0,-2.3982,-2.3983,-2.3986,-2.3985,-2.3985,-2.3986,-2.399,-2.3995,-2.3982,-2.3983,-2.3981,-2.398,-2.3986,-2.3986,-2.3988,-2.3999,-2.3999,-2.3988,-2.3988,-2.3988,-2.3989,0,0,0,0,0,0,0,-2.3982,-2.3983,-2.3991,-2.3986,-2.3985,-2.3983,-2.3983,-2.3991,-2.3987,-2.3983,-2.3982,-2.3982,-2.3986,-2.3987,-2.3988,-2.3999,-2.3988,-2.3988,-2.3989,-2.3989,-2.402,-2.4021,0,0,0,0,0,0,-2.3982,-2.3983,-2.3991,-2.3991,-2.3982,-2.3984,-2.3984,-2.3986,-2.3987,-2.3987,-2.3983,-2.3982,-2.3987,-2.3987,-2.3988,-2.4002,-2.3988,-2.3989,-2.3989,-2.402,-2.402,-2.4021,0,0,0,0,0,0,-2.3982,-2.3983,-2.3991,-2.3987,-2.3987,-2.3985,-2.3987,-2.3987,-2.3988,-2.3987,-2.3986,-2.3985,-2.3986,-2.3987,-2.3996,-2.4002,-2.3989,-2.399,-2.4019,-2.402,-2.4021,-2.4032,0,0,0,0,0,0,-2.3982,-2.3983,-2.3988,-2.3987,-2.3988,-2.3998,-2.3988,-2.3987,-2.3989,-2.3988,-2.3989,-2.3989,-2.3986,-2.3995,-2.3996,-2.4003,-2.399,-2.4019,-2.402,-2.402,-2.4031,-2.4033,-2.4034,0,0,0,0,0,-2.3981,-2.3991,-2.3988,-2.3989,-2.3993,-2.3999,-2.3999,-2.3995,-2.399,-2.3994,-2.3993,-2.3989,-2.4002,-2.3996,-2.3998,-2.4004,-2.4018,-2.4019,-2.402,-2.403,-2.4032,-2.4034,0,0,0,0,0,0,-2.3994,-2.3991,-2.3987,-2.3997,-2.3998,-2.3997,-2.4003,-2.3998,-2.4001,-2.4,-2.3996,-2.3996,-2.4005,-2.4006,-2.4,-2.4016,-2.4009,-2.401,-2.4016,-2.4018,-2.402,-2.4019,-2.3991,0,0,0,0,0,-2.3998,-2.4002,-2.3999,-2.4008,-2.4009,-2.4006,-2.4008,-2.4005,-2.4006,-2.4006,-2.4006,-2.4008,-2.4012,-2.4015,-2.4019,-2.4031,-2.4031,-2.4036,-2.4038,-2.404,-2.4041,-2.4046,-2.4048,-2.4024,-2.4024,-2.4024,0,0,-2.4006,-2.4005,-2.4008,-2.4011,-2.4011,-2.4015,-2.4006,-2.4012,-2.4015,-2.4007,-2.4015,-2.4015,-2.4017,-2.4027,-2.4031,-2.4027,-2.4047,-2.4041,-2.4042,-2.4042,-2.4047,-2.405,-2.4052,-2.4025,-2.4025,-2.4025,0,0,-2.4023,-2.4022,-2.4029,-2.403,-2.403,-2.4027,-2.4029,-2.4028,-2.4028,-2.4035,-2.4029,-2.4034,-2.4042,-2.4043,-2.4044,-2.4061,-2.4056,-2.4062,-2.4072,-2.4077,-2.4079,-2.4081,-2.4086,-2.4088,-2.4064,-2.4064,-2.4064,0,-2.4033,-2.4039,-2.4034,-2.4039,-2.404,-2.4033,-2.404,-2.4041,-2.4043,-2.4044,-2.404,-2.4048,-2.4049,-2.4059,-2.4063,-2.4065,-2.4066,-2.4062,-2.4079,-2.4081,-2.4082,-2.4087,-2.4089,-2.4064,-2.4064,-2.4064,-2.4064,0,-2.4051,-2.4055,-2.4061,-2.4062,-2.4064,-2.407,-2.4066,-2.4069,-2.4066,-2.4064,-2.4071,-2.4072,-2.4075,-2.4078,-2.4075,-2.4087,-2.4084,-2.408,-2.4072,-2.4085,-2.4089,-2.4091,-2.4065,-2.4065,-2.4065,-2.4065,0,0,-2.4076,-2.4073,-2.4075,-2.4075,-2.4075,-2.4078,-2.4084,-2.4087,-2.4089,-2.409,-2.4095,-2.4101,-2.4097,-2.4098,-2.4096,-2.41,-2.4112,-2.4095,-2.4095,-2.4098,-2.4125,-2.4128,-2.413,-2.411,-2.411,-2.411,-2.4124,0,-2.4092,-2.4101,-2.4096,-2.4106,-2.411,-2.4102,-2.4107,-2.4108,-2.4106,-2.4109,-2.4108,-2.4112,-2.4106,-2.4107,-2.4111,-2.411,-2.4118,-2.4109,-2.4114,-2.4114,-2.4113,-2.4133,-2.4136,-2.415,-2.4126,-2.4127,-2.4127,0,-2.4112,-2.4113,-2.4123,-2.4121,-2.4122,-2.4126,-2.4128,-2.4131,-2.4131,-2.413,-2.4131,-2.4127,-2.4133,-2.4126,-2.4133,-2.4128,-2.4129,-2.4129,-2.4129,-2.4129,-2.4121,-2.4133,-2.4154,-2.4156,-2.413,-2.413,-2.4129,0,-2.4128,-2.4133,-2.4139,-2.4139,-2.4137,-2.414,-2.4139,-2.4139,-2.414,-2.4142,-2.4143,-2.4146,-2.4147,-2.4149,-2.4146,-2.4141,-2.4154,-2.4147,-2.4153,-2.4153,-2.4156,-2.4156,-2.4177,-2.4158,-2.4158,-2.4158,-2.4158,0,-2.4147,-2.4153,-2.4146,-2.415,-2.4156,-2.4151,-2.4158,-2.4156,-2.4156,-2.4159,-2.4154,-2.4157,-2.4153,-2.4156,-2.4154,-2.416,-2.4161,-2.416,-2.4159,-2.416,-2.416,-2.4161,-2.416,-2.4158,-2.4158,-2.4158,-2.4158,0,-2.4166,-2.4162,-2.4168,-2.4165,-2.4164,-2.4169,-2.4167,-2.417,-2.4168,-2.4172,-2.4173,-2.417,-2.4173,-2.417,-2.4174,-2.4172,-2.418,-2.4179,-2.418,-2.4179,-2.4186,-2.4185,-2.4208,-2.4211,-2.419,-2.419,-2.4191,0,-2.4178,-2.4182,-2.4179,-2.418,-2.418,-2.4183,-2.4184,-2.4178,-2.418,-2.418,-2.4183,-2.4186,-2.4188,-2.4194,-2.4192,-2.4194,-2.4192,-2.42,-2.4193,-2.4193,-2.4192,-2.4191,-2.4192,-2.4202,-2.4202,-2.4202,-2.4202,0,-2.4199,-2.4196,-2.4198,-2.4198,-2.4199,-2.42,-2.42,-2.4201,-2.4196,-2.4198,-2.4201,-2.4202,-2.4205,-2.4208,-2.4209,-2.4209,-2.4205,-2.4205,-2.4206,-2.4207,-2.4207,-2.4207,-2.4184,-2.4204,-2.4204,-2.4204,-2.4204,-2.4204,-2.4215,-2.4218,-2.4216,-2.4217,-2.4216,-2.4216,-2.4219,-2.4216,-2.4218,-2.422,-2.4217,-2.422,-2.422,-2.4221,-2.4221,-2.4224,-2.4221,-2.4223,-2.4224,-2.4225,-2.4225,-2.4207,-2.4225,-2.4225,-2.4225,-2.4225,-2.4225,0,-2.4235,-2.4233,-2.4234,-2.4234,-2.4235,-2.423,-2.4229,-2.4231,-2.4233,-2.4233,-2.4234,-2.4237,-2.4239,-2.4237,-2.4239,-2.4242,-2.424,-2.4243,-2.4242,-2.4242,-2.4228,-2.4226,-2.4244,-2.4244,-2.4244,-2.4244,-2.4244,-2.4244,-2.4245,-2.425,-2.4247,-2.4251,-2.4249,-2.4252,-2.4252,-2.4252,-2.4251,-2.4254,-2.4255,-2.4254,-2.4253,-2.4254,-2.4256,-2.4255,-2.4256,-2.4259,-2.4258,-2.4245,-2.4243,-2.4241,-2.424,-2.426,-2.426,-2.4272,-2.4272,-2.4272]},{"header":{"parameterUnit":"m.s-1","parameterCategory":1,"la1":30.2991,"la2":30.254,"lo1":-89.0895,"lo2":-89.0444,"dy":0.0017,"dx":0.0017,"nx":28,"ny":28,"refTime":"2024-04-07T03:00:00:Z","depth":0,"parameterNumber":3,"parameterNumberName":"V-component_of_WINDS"},"data":[0,0,0,0,0,0,0,0,0,0,0,0,0,0,0,0,0,0,0,0,0,0,0,0,0,0,0,0,0,0,0,0,0,0,0,0,0,0,0,0,0,0,0,0,0,0,0,0,0,0,0,0,0,0,0,0,0,0,3.7701,3.7701,0,3.7715,3.7715,3.7715,3.7727,3.7727,3.7727,3.7727,3.774,3.7741,3.7741,0,0,0,0,0,0,0,0,0,0,0,0,0,3.7681,3.7681,3.7701,3.7701,3.7701,3.7715,3.7715,3.7715,3.7727,3.7727,3.7727,3.7727,3.774,3.7741,3.7741,0,0,0,0,0,0,0,0,0,0,0,0,0,3.7692,3.7681,3.7701,3.7708,3.7709,3.7715,3.7715,3.7715,3.7727,3.7727,3.7727,3.7727,3.774,3.7741,3.7741,3.774,0,0,3.7742,3.7742,0,0,0,0,0,0,0,0,3.7691,3.7693,3.7707,3.7708,3.7709,3.7719,3.7713,3.7723,3.7727,3.772,3.7727,3.7727,3.7733,3.7734,3.7736,3.774,3.7741,3.7742,3.7742,3.7742,3.7743,0,0,0,0,0,0,0,3.7691,3.7692,3.7706,3.7707,3.7708,3.7711,3.7712,3.7715,3.7725,3.7721,3.7722,3.7723,3.7734,3.7736,3.7737,3.7741,3.7742,3.7742,3.7743,3.7743,3.7744,3.7744,0,0,0,0,0,0,3.7689,3.7691,3.7706,3.7707,3.77,3.7711,3.7713,3.7716,3.7725,3.7727,3.7723,3.7724,3.7735,3.7736,3.7737,3.7736,3.7742,3.7743,3.7743,3.7744,3.7744,3.7744,0,0,0,0,0,0,3.7688,3.769,3.7705,3.7699,3.7701,3.7711,3.7714,3.7716,3.7718,3.7727,3.7729,3.7724,3.7735,3.7737,3.7739,3.7737,3.7743,3.7743,3.7744,3.7744,3.7744,3.7735,0,0,0,0,0,0,3.7688,3.769,3.769,3.7699,3.7702,3.7707,3.7714,3.7716,3.7719,3.772,3.7728,3.773,3.7736,3.7738,3.7739,3.7738,3.7744,3.7745,3.7744,3.7744,3.7735,3.7734,3.7733,0,0,0,0,0,3.7687,3.7686,3.769,3.7692,3.7702,3.7707,3.7709,3.7716,3.7719,3.7719,3.7724,3.773,3.7737,3.7739,3.774,3.7738,3.7745,3.7744,3.7744,3.7736,3.7734,3.7733,0,0,0,0,0,0,3.7676,3.7688,3.7692,3.7694,3.77,3.7709,3.7709,3.7714,3.7719,3.7719,3.7728,3.7729,3.773,3.7734,3.7736,3.7737,3.7741,3.7741,3.7735,3.7733,3.7732,3.7732,3.7744,0,0,0,0,0,3.7674,3.7678,3.7688,3.7689,3.7691,3.77,3.7702,3.7707,3.7713,3.7715,3.7721,3.7726,3.7729,3.7732,3.7735,3.7735,3.7737,3.7735,3.7734,3.7733,3.7733,3.7733,3.7732,3.7742,3.7742,3.7742,0,0,3.767,3.7677,3.7679,3.7687,3.7692,3.7695,3.7702,3.7705,3.7707,3.7716,3.7718,3.7723,3.7728,3.773,3.773,3.7733,3.773,3.7732,3.7732,3.7732,3.7732,3.7731,3.7731,3.7742,3.7742,3.7742,0,0,3.7664,3.767,3.7671,3.7676,3.7683,3.7689,3.7689,3.7698,3.7701,3.7704,3.771,3.7712,3.7718,3.7722,3.7725,3.772,3.7725,3.772,3.7715,3.7716,3.7715,3.7714,3.7712,3.7712,3.772,3.772,3.772,0,3.7658,3.7664,3.7671,3.7674,3.7677,3.7686,3.7687,3.7691,3.7699,3.77,3.7703,3.771,3.7715,3.7717,3.7716,3.7718,3.7718,3.772,3.7714,3.7714,3.7713,3.7712,3.7711,3.772,3.772,3.772,3.772,0,3.7656,3.7659,3.766,3.7668,3.7671,3.7673,3.768,3.7682,3.7687,3.7692,3.7694,3.77,3.7705,3.7705,3.771,3.7708,3.7709,3.7713,3.7718,3.7712,3.771,3.771,3.7719,3.7719,3.7719,3.7719,0,0,3.7644,3.7656,3.7656,3.766,3.7668,3.7671,3.7672,3.7678,3.7679,3.7684,3.7686,3.769,3.7693,3.7696,3.7701,3.7701,3.7697,3.7705,3.7705,3.7703,3.7695,3.7693,3.7692,3.77,3.7699,3.7699,3.7695,0,3.764,3.7645,3.7652,3.7654,3.7657,3.7665,3.7666,3.7671,3.7675,3.7678,3.7683,3.7686,3.769,3.7692,3.7692,3.7697,3.7695,3.7697,3.7701,3.7701,3.77,3.7691,3.7689,3.7684,3.7694,3.7694,3.7694,0,3.7636,3.7641,3.7644,3.7651,3.7653,3.7655,3.766,3.7662,3.7668,3.7671,3.7674,3.7679,3.7681,3.7684,3.7687,3.7688,3.769,3.7692,3.7692,3.7693,3.7698,3.7693,3.7683,3.7683,3.7693,3.7693,3.7693,0,3.7628,3.7635,3.7638,3.764,3.7649,3.765,3.7654,3.7659,3.7662,3.7666,3.7667,3.7671,3.7673,3.7676,3.7682,3.7684,3.7684,3.7688,3.7686,3.7686,3.7686,3.7686,3.7677,3.7686,3.7686,3.7686,3.7686,0,3.7623,3.7624,3.7634,3.7636,3.7637,3.7644,3.7646,3.765,3.7655,3.7657,3.7663,3.7664,3.7672,3.7674,3.7678,3.768,3.768,3.7683,3.7684,3.7683,3.7682,3.7684,3.7685,3.7686,3.7686,3.7686,3.7686,0,3.7615,3.7621,3.7624,3.7632,3.7634,3.7635,3.7642,3.7643,3.7648,3.765,3.7651,3.7658,3.7661,3.7667,3.7671,3.7674,3.7675,3.7677,3.7673,3.7674,3.7672,3.7673,3.7665,3.7664,3.7673,3.7673,3.7673,0,3.7611,3.7613,3.7621,3.7623,3.7626,3.763,3.7632,3.7639,3.7641,3.7647,3.7648,3.7651,3.7655,3.7659,3.7664,3.7667,3.767,3.7667,3.767,3.7669,3.767,3.767,3.767,3.7666,3.7666,3.7666,3.7666,0,3.7605,3.7608,3.7612,3.7616,3.7619,3.7623,3.7628,3.7629,3.7636,3.7638,3.7642,3.7644,3.7649,3.7652,3.7656,3.7659,3.7664,3.7664,3.7664,3.7663,3.7661,3.7663,3.7672,3.7665,3.7665,3.7665,3.7665,3.7665,3.7599,3.7601,3.7607,3.761,3.7614,3.7618,3.762,3.7624,3.7628,3.7632,3.7636,3.7639,3.7643,3.7649,3.7652,3.7654,3.7656,3.7656,3.7656,3.7656,3.7655,3.766,3.7655,3.7655,3.7655,3.7655,3.7655,0,3.7593,3.7597,3.7601,3.7607,3.7609,3.7613,3.7618,3.762,3.7623,3.7627,3.763,3.7634,3.7637,3.7642,3.7645,3.7646,3.7648,3.7647,3.7647,3.7648,3.7653,3.7653,3.7645,3.7645,3.7645,3.7645,3.7645,3.7645,3.759,3.7593,3.7597,3.7601,3.7605,3.7609,3.7611,3.7614,3.7617,3.7621,3.7624,3.7628,3.7632,3.7636,3.7639,3.764,3.7641,3.7639,3.7641,3.7646,3.7647,3.7648,3.7648,3.7639,3.7639,3.7636,3.7636,3.7636]}]]